• In Deutschland
  • Länderverzeichnis
  • Für 7 Tage
  • Wassertemperatur
  • Satellitenkarten
  • Wetterkarte
  • Widgets
  • user-avatar
    Anmelden

    Stündliche Wetter Fürstenwalde

    Heute, 20 Oktober, Freitag

    Zeit Temperatur Niederschläge Wind Luftdruck Luftfeuchtigkeit
    00:00 +11°C° 0 mm 3 m/S 756 mmHg 85%
    01:00 +12°C° 0 mm 2 m/S 756 mmHg 86%
    02:00 +12°C° 0 mm 2 m/S 756 mmHg 85%
    03:00 +12°C° 0 mm 2 m/S 756 mmHg 84%
    04:00 +10°C° 0 mm 3 m/S 756 mmHg 83%
    05:00 +10°C° 0 mm 3 m/S 756 mmHg 82%
    06:00 +10°C° 0 mm 2 m/S 756 mmHg 81%
    07:00 +10°C° 0 mm 2 m/S 756 mmHg 79%
    08:00 +12°C° 0 mm 2 m/S 756 mmHg 73%
    09:00 +13°C° 0 mm 3 m/S 756 mmHg 67%
    10:00 +16°C° 0 mm 3 m/S 756 mmHg 60%
    11:00 +17°C° 0 mm 3 m/S 756 mmHg 57%
    12:00 +18°C° 0 mm 3 m/S 756 mmHg 54%
    13:00 +19°C° 0 mm 3 m/S 755 mmHg 51%
    14:00 +19°C° 0 mm 3 m/S 755 mmHg 55%
    15:00 +18°C° 0 mm 2 m/S 755 mmHg 58%
    16:00 +18°C° 0 mm 2 m/S 755 mmHg 62%
    17:00 +17°C° 0,1 mm 2 m/S 755 mmHg 66%
    18:00 +16°C° 0,1 mm 2 m/S 755 mmHg 70%
    19:00 +16°C° 0,1 mm 2 m/S 755 mmHg 73%
    20:00 +15°C° 0,1 mm 2 m/S 756 mmHg 77%
    21:00 +14°C° 0,1 mm 3 m/S 756 mmHg 80%
    22:00 +13°C° 0,1 mm 3 m/S 756 mmHg 84%
    23:00 +13°C° 0 mm 3 m/S 756 mmHg 86%

    Morgen, 21 Oktober, Samstag

    Zeit Temperatur Niederschläge Wind Luftdruck Luftfeuchtigkeit
    00:00 +12°C° 0 mm 3 m/S 756 mmHg 87%
    01:00 +11°C° 0 mm 3 m/S 756 mmHg 89%
    02:00 +11°C° 0 mm 3 m/S 756 mmHg 89%
    03:00 +10°C° 0 mm 2 m/S 756 mmHg 89%
    04:00 +10°C° 0 mm 2 m/S 756 mmHg 89%
    05:00 +10°C° 0 mm 2 m/S 757 mmHg 89%
    06:00 +9°C° 0 mm 2 m/S 757 mmHg 89%
    07:00 +9°C° 0 mm 2 m/S 757 mmHg 89%
    08:00 +10°C° 0 mm 2 m/S 757 mmHg 82%
    09:00 +13°C° 0 mm 2 m/S 757 mmHg 76%
    10:00 +14°C° 0 mm 2 m/S 757 mmHg 69%
    11:00 +15°C° 0 mm 2 m/S 757 mmHg 65%
    12:00 +16°C° 0 mm 2 m/S 757 mmHg 60%
    13:00 +16°C° 0 mm 2 m/S 757 mmHg 56%
    14:00 +16°C° 0 mm 2 m/S 756 mmHg 58%
    15:00 +16°C° 0 mm 2 m/S 756 mmHg 61%
    16:00 +16°C° 0 mm 1 m/S 756 mmHg 63%
    17:00 +15°C° 0 mm 2 m/S 756 mmHg 67%
    18:00 +14°C° 0 mm 2 m/S 756 mmHg 71%
    19:00 +13°C° 0 mm 2 m/S 756 mmHg 76%
    20:00 +13°C° 0,2 mm 2 m/S 756 mmHg 77%
    21:00 +13°C° 0,2 mm 2 m/S 756 mmHg 79%
    22:00 +12°C° 0,2 mm 3 m/S 756 mmHg 81%
    23:00 +13°C° 0,2 mm 2 m/S 756 mmHg 83%

    übermorgen, 22 Oktober, Sonntag

    Zeit Temperatur Niederschläge Wind Luftdruck Luftfeuchtigkeit
    00:00 +13°C° 0,2 mm 2 m/S 756 mmHg 86%
    01:00 +14°C° 0,2 mm 2 m/S 756 mmHg 88%
    02:00 +13°C° 1,7 mm 2 m/S 756 mmHg 89%
    03:00 +12°C° 1,7 mm 3 m/S 756 mmHg 90%
    04:00 +12°C° 1,7 mm 3 m/S 756 mmHg 91%
    05:00 +12°C° 0,2 mm 3 m/S 756 mmHg 91%
    06:00 +11°C° 0,2 mm 3 m/S 756 mmHg 91%
    07:00 +11°C° 0,2 mm 3 m/S 756 mmHg 91%
    08:00 +11°C° 0 mm 3 m/S 756 mmHg 86%
    09:00 +12°C° 0 mm 3 m/S 756 mmHg 81%
    10:00 +13°C° 0 mm 4 m/S 756 mmHg 77%
    11:00 +13°C° 0 mm 4 m/S 756 mmHg 73%
    12:00 +13°C° 0 mm 4 m/S 756 mmHg 69%
    13:00 +14°C° 0 mm 4 m/S 756 mmHg 65%
    14:00 +13°C° 0 mm 4 m/S 755 mmHg 66%
    15:00 +13°C° 0 mm 3 m/S 755 mmHg 67%
    16:00 +12°C° 0 mm 3 m/S 755 mmHg 68%
    17:00 +11°C° 0 mm 3 m/S 756 mmHg 72%
    18:00 +10°C° 0 mm 3 m/S 756 mmHg 75%
    19:00 +9°C° 0 mm 2 m/S 756 mmHg 78%
    20:00 +9°C° 0 mm 2 m/S 756 mmHg 80%
    21:00 +9°C° 0 mm 2 m/S 756 mmHg 81%
    22:00 +8°C° 0 mm 3 m/S 756 mmHg 82%
    23:00 +8°C° 0 mm 2 m/S 756 mmHg 83%

    23 Oktober, Montag

    Zeit Temperatur Niederschläge Wind Luftdruck Luftfeuchtigkeit
    00:00 +8°C° 0 mm 2 m/S 756 mmHg 85%
    01:00 +7°C° 0 mm 2 m/S 756 mmHg 87%
    02:00 +7°C° 0 mm 2 m/S 756 mmHg 87%
    03:00 +7°C° 0 mm 2 m/S 756 mmHg 87%
    04:00 +7°C° 0 mm 2 m/S 756 mmHg 88%
    05:00 +7°C° 0 mm 2 m/S 756 mmHg 89%
    06:00 +7°C° 0 mm 2 m/S 756 mmHg 91%
    07:00 +6°C° 0 mm 2 m/S 756 mmHg 93%
    08:00 +8°C° 0 mm 2 m/S 756 mmHg 87%
    09:00 +9°C° 0 mm 2 m/S 756 mmHg 81%
    10:00 +10°C° 0 mm 2 m/S 756 mmHg 75%
    11:00 +12°C° 0 mm 2 m/S 756 mmHg 70%
    12:00 +13°C° 0 mm 2 m/S 756 mmHg 66%
    13:00 +14°C° 0 mm 1 m/S 756 mmHg 61%
    14:00 +13°C° 0 mm 1 m/S 756 mmHg 63%
    15:00 +13°C° 0 mm 1 m/S 756 mmHg 65%
    16:00 +12°C° 0 mm 0 m/S 756 mmHg 66%
    17:00 +11°C° 0 mm 0 m/S 757 mmHg 68%
    18:00 +11°C° 0 mm 0 m/S 757 mmHg 70%
    19:00 +11°C° 0 mm 1 m/S 758 mmHg 72%
    20:00 +11°C° 0 mm 1 m/S 758 mmHg 73%
    21:00 +11°C° 0 mm 1 m/S 758 mmHg 74%
    22:00 +11°C° 0 mm 1 m/S 759 mmHg 75%
    23:00 +10°C° 0 mm 1 m/S 759 mmHg 78%

    24 Oktober, Dienstag

    Zeit Temperatur Niederschläge Wind Luftdruck Luftfeuchtigkeit
    00:00 +9°C° 0 mm 1 m/S 760 mmHg 80%
    01:00 +8°C° 0 mm 0 m/S 760 mmHg 83%
    02:00 +8°C° 0 mm 1 m/S 760 mmHg 85%
    03:00 +8°C° 0 mm 1 m/S 761 mmHg 86%
    04:00 +8°C° 0 mm 1 m/S 761 mmHg 88%
    05:00 +6°C° 0 mm 0 m/S 762 mmHg 88%
    06:00 +6°C° 0 mm 0 m/S 762 mmHg 89%
    07:00 +6°C° 0 mm 0 m/S 763 mmHg 90%
    08:00 +8°C° 0 mm 0 m/S 763 mmHg 83%
    09:00 +9°C° 0 mm 0 m/S 763 mmHg 76%
    10:00 +11°C° 0 mm 0 m/S 764 mmHg 70%
    11:00 +13°C° 0 mm 1 m/S 764 mmHg 66%
    12:00 +14°C° 0 mm 1 m/S 764 mmHg 62%
    13:00 +14°C° 0 mm 1 m/S 764 mmHg 59%
    14:00 +14°C° 0 mm 1 m/S 764 mmHg 61%
    15:00 +13°C° 0 mm 1 m/S 764 mmHg 64%
    16:00 +13°C° 0 mm 1 m/S 764 mmHg 67%
    17:00 +12°C° 0 mm 1 m/S 765 mmHg 70%
    18:00 +11°C° 0 mm 1 m/S 765 mmHg 73%
    19:00 +9°C° 0 mm 2 m/S 765 mmHg 77%
    20:00 +9°C° 0 mm 2 m/S 765 mmHg 79%
    21:00 +9°C° 0 mm 2 m/S 766 mmHg 81%
    22:00 +8°C° 0 mm 2 m/S 766 mmHg 82%
    23:00 +8°C° 0 mm 2 m/S 766 mmHg 84%

    25 Oktober, Mittwoch

    Zeit Temperatur Niederschläge Wind Luftdruck Luftfeuchtigkeit
    00:00 +8°C° 0 mm 2 m/S 766 mmHg 86%
    01:00 +7°C° 0 mm 3 m/S 766 mmHg 87%
    02:00 +7°C° 0 mm 3 m/S 766 mmHg 88%
    03:00 +7°C° 0 mm 3 m/S 765 mmHg 88%
    04:00 +7°C° 0 mm 2 m/S 765 mmHg 88%
    05:00 +7°C° 0 mm 3 m/S 765 mmHg 88%
    06:00 +7°C° 0 mm 3 m/S 765 mmHg 87%
    07:00 +7°C° 0 mm 3 m/S 765 mmHg 86%
    08:00 +9°C° 0 mm 3 m/S 765 mmHg 82%
    09:00 +10°C° 0 mm 3 m/S 766 mmHg 77%
    10:00 +11°C° 0 mm 3 m/S 766 mmHg 72%
    11:00 +13°C° 0 mm 3 m/S 765 mmHg 69%
    12:00 +14°C° 0 mm 3 m/S 765 mmHg 66%
    13:00 +16°C° 0 mm 3 m/S 765 mmHg 63%
    14:00 +16°C° 0 mm 3 m/S 765 mmHg 66%
    15:00 +15°C° 0 mm 2 m/S 765 mmHg 69%
    16:00 +15°C° 0 mm 2 m/S 765 mmHg 71%
    17:00 +14°C° 0 mm 2 m/S 765 mmHg 74%
    18:00 +13°C° 0 mm 2 m/S 766 mmHg 76%
    19:00 +13°C° 0 mm 2 m/S 766 mmHg 79%
    20:00 +12°C° 0 mm 2 m/S 766 mmHg 78%
    21:00 +12°C° 0 mm 2 m/S 766 mmHg 78%
    22:00 +12°C° 0 mm 2 m/S 766 mmHg 77%
    23:00 +12°C° 0 mm 2 m/S 766 mmHg 77%
    Mehr zeigen